Starlink 31881

operational
NORAD ID: 59659 Int'l Des: 2024-084 Owner: SPXS Country: US Constellation: starlink
LEOCIRCULAR

About Starlink 31881

Description loading...

Live Position

Loading 3D Globe...

Upcoming Passes

Altitude History

Altitude vs Time

uPlot chart will show altitude changes over time

Two-Line Element Set

1 59659U 24084F 25305.57306679 -.00004447 00000-0 -15225-3 0 9999
2 59659 43.0024 41.5057 0001784 271.1586 88.9061 15.27563844 84820
Epoch: Nov 1, 2025 • Age: 16 hours

Current Status

Altitude 486.6 km
Velocity 7.63 km/s
Sub-Earth Point 39.44°N, 25.62°E
Launch Date May 6, 2024
Age 1.4 years
Type internet

Technical Details

Classification Payload
Mass 730.00 kg
Dry Mass 700.00 kg
Total Mass 730.00 kg
Length 0.30 m
Diameter 4.10 m
Span 29.00 m
Shape Box + pan
Manufacturer SPXS
Bus Type Starlink V2M
Phase Status In Orbit
Owner/State SPXS/US

Large Constellations

Loading constellations...